Simultaneous Nadir Overpasses (SNOs) Predictions

Prediction of SNOs between TERRA and METOP-C Satellite Orbit:

Table of predicted SNOs for the next 14.0 days since TLE Epoch: 10/15/2022
Index Date (TERRA) Time (TERRA) Lat,Lon (TERRA) SZA (TERRA ) Date (METOP-C) Time (METOP-C) Lat,Lon (METOP-C) SZA (METOP-C ) Distance(km) Time Diff (sec)
1 10/17/2022 01:18:36 -81.00, 17.66 87.69 10/17/2022 01:17:33 -81.00, 17.52 87.74 2.54 63
2 10/17/2022 02:08:01 81.02,-174.39 92.37 10/17/2022 02:08:11 81.02,-174.50 92.37 2.03 10
3 10/19/2022 19:11:28 -81.02, 109.65 86.65 10/19/2022 19:10:35 -81.02, 109.72 86.67 1.23 53
4 10/19/2022 20:00:53 81.04, -82.43 93.41 10/19/2022 20:01:13 81.04, -82.36 93.43 1.31 20
5 10/22/2022 13:04:19 -81.02,-158.52 85.66 10/22/2022 13:03:37 -81.02,-158.50 85.68 0.56 42
6 10/22/2022 13:53:44 81.04, 9.36 94.39 10/22/2022 13:54:15 81.04, 9.37 94.41 0.14 31
7 10/25/2022 06:57:11 -81.02, -66.85 84.72 10/25/2022 06:56:40 -81.02, -66.79 84.72 0.98 31
8 10/25/2022 07:46:36 81.03, 100.97 95.33 10/25/2022 07:47:18 81.04, 101.03 95.36 1.29 42
9 10/28/2022 00:50:02 -81.02, 25.02 83.77 10/28/2022 00:49:43 -81.01, 24.86 83.80 2.99 19



Historial Predications of SNOs between TERRA and METOP-C
